Погода Покровская

Погода Покровская : погода сейчас, прогноз погоды и архив. Всё, что Вы хотите узнать о погоде Покровская!

Хотите узнать прогноз погоды Покровская? Тогда Вам сюда: Погода Покровская

Поиск расширенной информации на нашем сайте:

Другие новости

Новости СМИ2

Главная страница сайта

Новости сайта

03.07.2017

Напоминаем, что на нашем специализированном сайте Метеоцентр.Азия вы можете получить высокодетализированные автоматические прогнозы погоды по пунктам России, СНГ и мира в авиационном формате (включающие направление и скорость ветра, видимость, явления погоды, количество и форму облачности, нижнюю и верхнюю границу облачности).


Погода Покровская - сегодня

Время (UTC), дата Ветер
(°,м/с) 
Видим.   Явления Облачность Т
(°С)
Тd
(°С)
f(%) Тe
(°С)
Pmin
(гПа)
dP
(гПа)
Po
(мм)
O2
(г/м3)
Тmin Tmax R s Состояние
почвы
09 17.02.18 240 (ЮЗ) 20000 м    8/0 средняя, верхняя 
[Ac lent|Ci fib]
-25.3 -27.2 84 -26  1021.8  0.2  754  337           
15 17.02.18 250 (З) 20000 м    ясно 
-31.8 -34.1 80 -36  1021.9  -0.5  753  346           
18 17.02.18 260 (З) 20000 м    ясно 
-32.9 -35.1 81 -37  1021.9  753  347           
21 17.02.18 250 (З) 20000 м    ясно 
-35.3 -37.7 78 -40  1022.2  753  351           
00 18.02.18 250 (З) 20000 м    ясно 
-35.5 -37.7 80 -37  1022.3  0.1  754  351  -35.5      25  равномерный
сухой снег
100% 
03 18.02.18 тихо ()   20000 м    10/0 верхняя 
[Ci fib]
-27.6 -30 80 -28  1021.7  754  340           
06 18.02.18 230 (ЮЗ) 20000 м    10/0 верхняя 
[Ci fib]
-24 -26.5 80 -27  1021.3  -0.2  753  335           
09 18.02.18 тихо ()   20000 м  {снег}  10/0 верхняя 
[Cs]
-27.2 -29.6 80 -27  1022  0.5  754  339           
15 18.02.18 250 (З) 20000 м    ясно 
-36.1 -39.8 69 -40  1026.1  1.2  756  353           
18 18.02.18 240 (ЮЗ) 20000 м    ясно 
-37 -39.1 81 -41  1022.7  -0.2  754  353           
21 18.02.18 250 (З) 20000 м    ясно 
-38.5 -40.8 79 -45  1022.7  754  356           
00 19.02.18 250 (З) 20000 м    3/0 верхняя 
[Ci fib]
-39.5 -41.1 85 -44  1022.6  -0.2  754  357  -39.5      25  равномерный
сухой снег
100% 
03 19.02.18 210 (ЮЗ) 20000 м    6/0 верхняя 
[Ci fib]
-29.5 -31.3 84 -35  1021.2  -0.7  753  342           
06 19.02.18 210 (ЮЗ) 20000 м    10/0 верхняя 
[Ci fib]
-26.3 -28.7 80 -33  1020.2  -0.7  752  337           
09 19.02.18 270 (З) 20000 м    8/0 верхняя 
[Ci fib]
-27.9 -29.7 84 -29  1020.3  752  340           
12 19.02.18 250 (З) 20000 м    10/0 верхняя 
[Cs]
-34.2 -35.9 84 -40  1020.6  -0.2  752  349    -25.9       
15 19.02.18 250 (З) 20000 м    4/0 верхняя 
[Ci fib]
-37.3 -38.9 85 -42  1020.4  -0.5  752  353           
18 19.02.18 260 (З) 20000 м    ясно 
-39.5 -41.7 79 -46  1019.7  -0.7  751  356           
21 19.02.18 250 (З) 4000 м  дымка  ясно 
-41.8 -43.8 81 -43  1019.3  -0.6  751  359           
00 20.02.18 260 (З) 4000 м  дымка  ясно 
-43.6 -45.7 80 -45  1019.3  -0.1  751  362  -43.6      25  равномерный
сухой снег
100% 
03 20.02.18 220 (ЮЗ) 20000 м    ясно 
-34.5 -36.2 84 -39  1018.6  751  348           
06 20.02.18 230 (ЮЗ) 20000 м    3/0 верхняя 
[Ci fib]
-30.8 -33.2 79 -37  1018.1  -0.2  751  343           
09 20.02.18 250 (З) 20000 м    3/0 средняя 
[Ac trans]
-31.3 -33.6 80 -32  1018.5  0.3  751  344           
12 20.02.18 250 (З) 20000 м    ясно 
-37.6 -39.9 79 -42  1018.8  -0.2  751  353    -29.7       
15 20.02.18 250 (З) 10 км  дымка  ясно 
-39.1 -41.2 80 -44  1018.9  751  355           
Время (UTC), дата Ветер
(°,м/с) 
Видим.   Явления Облачность Т
(°С)
Тd
(°С)
f(%) Тe
(°С)
Pmin
(гПа)
dP
(гПа)
Po
(мм)
O2
(г/м3)
Тmin Tmax R s Состояние
почвы

Для получения пояснительной информации подведите курсор к названию столбца.

ПОГОДА Покровская - архив

Всё, что Вы хотите узнать о погоде Покровская - удобно и подробно!

Выберите нужную дату (начиная с 1 января 2015* года) и нажмите кнопку "Найти".
Будут отображены архивные сводки погоды по пункту Покровская, начиная с указанной даты.


Отображать данные в формате CSV (для использования в таблицах Excel)


Внимание! Наш архив погоды предназначен исключительно для личного некоммерческого использования в познавательных целях. Если Вам необходимы официальные справки о состоянии погоды (для производственных, юридических, коммерческих и т.п. целей), обращайтесь в органы Росгидромета.

*Примечание: данная дата относится к архиву по метеостанциям СССР (Россия, СНГ, Балтия).
Архив по метеостанциям Зарубежной Европы и Азии (кроме Китая) хранится 10 дней, по другим регионам земного шара (Китай, Африка, Америка, Австралия, Океания) - 1 день.

Покровская - район местоположения метеостанции


Название, широта, долгота, высота метеостанции:
Покровская 61.5°ш. 129.2°д. 115 м над ур. моря [Российская Федерация]

Дополнительная информация

В oтличие oт бoльшинства пoгoдных сайтoв мы публикуем пoдрoбную метеoинфoрмацию в детальнoм прoфессиoнальнoм фoрмате.

Характеристики температуры и влажнoсти вoздуха измеряются на высoте 2 м в тени вдали oт зданий и деревьев.
Скoрoсть ветра измеряется на высoте 10 м (на урoвне рoста челoвека скoрoсть ветра ниже в 1.5-2 раза). Если метеoстанция нахoдится в гoрoде или в лесу, тo скoрoсть ветра занижена на 2-4 м/с пo сравнению с oткрытым местoм. Скoрoсть ветра над акватoриями крупных рек и oзёр, а также на вершинах хoлмoв на 2-5 м/с выше, чем в oбычных услoвиях.
Атмoсфернoе давление в разных тoчках местнoсти мoжет значительнo oтличаться oт давления на метеoстанции, в зависимoсти oт услoвий рельефа (при пoдъёме на 10 м давление пoнижается примернo на 1 мм рт.ст.).